Tracking 18980 objects as of 21-Feb-2018
HD Live streaming from Space Station
objects crossing your sky now

FENGYUN 1C DEB

Track FENGYUN 1C DEB now!
10-day predictions


NORAD ID: 30400
Int'l Code: 1999-025ADP
Perigee: 738.3 km
Apogee: 1,148.5 km
Inclination: 99.2 °
Period: 103.8 minutes
Semi major axis: 7314 km
RCS: 0.0229 m2 (small)
Launch date: May 10, 1999
Source: People's Republic of China (PRC)
Launch site: Taiyaun Space Center, China (TSC)

Note: This is SATELLITE DEBRIS
aabbcc
Your satellite tracking list
Your tracking list is empty




NASA's NSSDC Master Catalog

Two Line Element Set (TLE):
1 30400U 99025ADP 18051.74311737  .00000246  00000-0  17836-3 0  9990
2 30400  99.1643 328.2231 0280383 183.1863 242.3271 13.87816163558166
Source of the keplerian elements: AFSPC